Location: Nairn
(57.5833°N, 3.8667°W)
Time: 11:14:34
(UTC+00:00)

Altair - Pass Details

Date: 08 December 2023
Orbit: 1501 x 1682 km, 47.2° (Epoch: 02 March)

Event Time Altitude Azimuth Distance (km) Brightness Sun altitude
Rises 05:52:49 0° 177° (S) 4,847 10.3 -20.9°
Reaches altitude 10° 05:58:24 10° 152° (SSE) 3,825 10.1 -20.2°
Maximum altitude 06:02:09 13° 128° (SE) 3,571 10.3 -19.7°
Drops below altitude 10° 06:05:51 10° 105° (ESE) 3,774 10.8 -19.2°
Sets 06:11:14 0° 80° (E) 4,722 11.3 -18.5°
